AirNav   Air Wisconsin Up To $57,000 Bonus
 
 500 users online  

CN19 Las Serpientes Airport
Knightsen, California, USA

GOING TO KNIGHTSEN?


FAA INFORMATION EFFECTIVE 07 NOVEMBER 2019

Location

FAA Identifier: CN19
Lat/Long: 37-55-59.3000N 121-36-46.3000W
37-55.988333N 121-36.771667W
37.9331389,-121.6128611
(estimated)
Elevation: 10 ft. / 3 m (estimated)
From city: 2 miles SE of KNIGHTSEN, CA
Time zone: UTC -8 (UTC -7 during Daylight Saving Time)
Zip code: 94513

Airport Operations

Airport use: Private use. Permission required prior to landing
Activation date: 02/2004
Control tower: no
ARTCC: OAKLAND CENTER
FSS: OAKLAND FLIGHT SERVICE STATION
Attendance: UNATNDD
Segmented circle: no

Airport Communications

WX AWOS-3 at C83 (6 nm S): 123.775 (925-634-0906)
WX AWOS-AV at O88 (16 nm N): 127.075 (707-374-5396)
WX AWOS-3 at TCY (17 nm SE): 118.375 (209-831-4335)
WX ASOS at LVK (17 nm SW): PHONE 925-606-5412
WX ASOS at SCK (18 nm E): PHONE 209-982-4270

Nearby radio navigation aids

VOR radial/distance  VOR name  Freq  Var
CCRr091/21.5CONCORD VOR/DME117.0017E
LINr237/30.0LINDEN VOR/DME114.8017E
SACr168/30.8SACRAMENTO VORTAC115.2017E
OAKr050/31.5OAKLAND VOR/DME116.8017E
MODr284/36.1MODESTO VOR/DME114.6017E
SJCr009/37.0SAN JOSE VOR/DME114.1016E
SGDr095/38.8SCAGGS ISLAND VORTAC112.1017E

Airport Services

Runway Information

Runway 16/34

Dimensions: 1900 x 75 ft. / 579 x 23 m
Surface: turf
Runway edge lights: high intensity
RUNWAY 16  RUNWAY 34
Traffic pattern: leftleft
Displaced threshold: no200 ft.
DSPLCD THLD RY 34 MARKED WITH WHITE BOARDS.
Obstructions: none10 ft. berm, 50 ft. from runway

Airport Ownership and Management from official FAA records

Ownership: Privately-owned
Owner: BRUCE CLEGG
4401 ORWOOD ROAD
BRENTWOOD, CA 94513-5219
Phone 925-634-4064
Manager: BRUCE CLEGG
4401 ORWOOD ROAD
BRENTWOOD, CA 94513-5219
Phone 925-634-4064
CELL 925-698-4831

Airport Operational Statistics

Aircraft based on the field: 1
Single engine airplanes: 1
    

Additional Remarks

OWNER DESIRES ARPT NOT BE CHARTED.
FOR CD CTC NORCAL APCH AT 916-361-0516.

Instrument Procedures

There are no published instrument procedures at CN19.

Some nearby airports with instrument procedures:

C83 - Byron Airport (6 nm S)
O88 - Rio Vista Municipal Airport (16 nm N)
KTCY - Tracy Municipal Airport (17 nm SE)
KLVK - Livermore Municipal Airport (17 nm SW)
KSCK - Stockton Metropolitan Airport (18 nm E)
 
Loc | Ops | Rwys | IFR | FBO | Links
Com | Nav | Svcs | Stats | Notes
Area around CN19 (Las Serpientes Airport)
 
Road maps at: MapQuest Bing Google
 
Aerial photo
WARNING: Photo may not be current or correct
Aerial photo of CN19 (Las Serpientes Airport)
Do you have a better or more recent aerial photo of Las Serpientes Airport that you would like to share? If so, please send us your photo.

 
Sectional chart

 
Airport distance calculator
Flying to Las Serpientes Airport? Find the distance to fly.

From to CN19

Sunrise and sunset
Times for 17-Nov-2019
 Local
(UTC-8)
 Zulu
(UTC)
Morning civil twilight06:2214:22
Sunrise06:5014:50
Sunset16:5300:53
Evening civil twilight17:2101:21

Current date and time
Zulu (UTC)  17-Nov-2019 11:34:04
Local (UTC-8)  17-Nov-2019 03:34:04
 
METAR
KC83 
6nm S 
171115Z AUTO 29004KT 10SM CLR 08/06 A3011 RMK AO2
KTCY 
17nm SE 
171115Z AUTO 00000KT 10SM CLR 10/05 A3011 RMK A01
KLVK 
17nm SW 
171053Z AUTO 00000KT 10SM CLR 08/04 A3010 RMK AO2 SLP190 T00830044 $
KSCK 
19nm E 
171055Z AUTO 00000KT 6SM HZ CLR 09/07 A3011 RMK AO2 SLP194 T00940067
TAF
KLVK 
17nm SW 
170934Z 1710/1806 VRB03KT P6SM SKC FM171730 29010KT P6SM SKC FM180300 29004KT P6SM SKC
KSCK 
19nm E 
170520Z 1706/1806 VRB03KT P6SM SKC FM171000 VRB03KT 3SM BR SKC FM171500 00000KT 1/2SM FG SKC FM171700 35002KT 4SM HZ SKC FM172000 31003KT P6SM SKC
NOTAMs
Click for the latest NOTAMs
NOTAMs are issued by the DoD/FAA and will open in a separate window not controlled by AirNav.

 

 
 

Would you like to see your business listed on this page?

 If your business provides an interesting product or service to pilots, flight crews, aircraft, or users of the Las Serpientes Airport, you should consider listing it here.  To start the listing process, click on the button below
 
Add a business
 

Other Pages about Las Serpientes Airport

Update a link
 
Copyright © AirNav, LLC. All rights reserved. Privacy Policy  Contact